Regional Weather Roundup
Issued by NWS

Home | Current Version | Previous Version | Graphics & Text | Print | Product List | Glossary On
Versions: 1 2 3 4 5 6 7 8 9 10 11 12 13 14 15 16 17 18 19 20 21 22 23 24 25 26 27 28 29 30 31 32 33 34 35 36 37 38 39 40 41 42 43 44 45 46 47 48 49 50
000
ASUS45 KBOI 171710
RWRID
WEATHER ROUNDUP FOR IDAHO
NATIONAL WEATHER SERVICE BOISE ID
1100 AM MDT WED SEP 17 2014

NOTE: "FAIR" INDICATES FEW OR NO CLOUDS BELOW 12000 FEET
WITH NO SIGNIFICANT WEATHER AND/OR OBSTRUCTIONS TO VISIBILITY

IDZ012-014-171800-
SOUTHWEST IDAHO


CITY           SKY/WX    TMP DP  RH WIND       PRES   REMARKS
BOISE          CLOUDY    74  47  38 E5        29.88S
CALDWELL       CLOUDY    73  48  40 SE5       29.88S
MOUNTAIN HOME  PTSUNNY   76  43  30 E12       29.89S
$$

IDZ016-017-171800-
SOUTHCENTRAL IDAHO


CITY           SKY/WX    TMP DP  RH WIND       PRES   REMARKS
BURLEY         MOSUNNY   74  49  41 E6        29.94F
JEROME         PTSUNNY   74  48  39 NE10      29.95S
TWIN FALLS     PTSUNNY   75  52  44 NE6       29.94S
$$

IDZ019>023-171800-
SOUTHEAST IDAHO


CITY           SKY/WX    TMP DP  RH WIND       PRES   REMARKS
IDAHO FALLS    PTSUNNY   70  50  49 NW6       30.02R
POCATELLO      MOSUNNY   78  48  34 E6        29.99F
REXBURG        MOSUNNY   68  47  46 CALM      30.03S
$$

IDZ006-010-011-018-031-032-171800-
CENTRAL IDAHO MOUNTAINS


CITY           SKY/WX    TMP DP  RH WIND       PRES   REMARKS
MCCALL         CLOUDY    62  45  53 S3        30.00R
HAILEY         PTSUNNY   70  37  30 NW8       30.05F
STANLEY          N/A     55  38  52 VRB3      30.14F
SALMON         MOSUNNY   63  46  55 CALM      30.00F
CHALLIS        PTSUNNY   60  47  61 VRB3      30.06F
$$

IDZ002-004-006-007-026-171800-
NORTHERN IDAHO


CITY           SKY/WX    TMP DP  RH WIND       PRES   REMARKS
LEWISTON       CLOUDY    68  44  42 SE3       29.80F
LOWELL           N/A     61  53  75 CALM      29.85F
COEUR D`ALENE  SUNNY     66  48  52 NE10      29.83F
MULLAN PASS    PTSUNNY   62  40  44 S5        30.01F
$$



USA.gov is the U.S. government's official web portal to all federal, state and local government web resources and services.